Location: Bernadets
(43.3537°N, 0.3167°E)
Time: 00:58:15
(UTC+00:00)

Cosmos 2333 Rocket - Pass Details

Date: 24 October 2021
Orbit: 837 x 865 km, 70.8° (Epoch: 06 December)

Event Time Altitude Azimuth Distance (km) Brightness Sun altitude
Rises 20:02:50 0° 221° (SW) 3,385 5.6 -33.4°
Reaches altitude 10° 20:05:21 10° 227° (SW) 2,457 4.9 -33.9°
Enters shadow 20:09:38 42° 267° (W) 1,199 3.2 -34.6°
